THORAD DELTA 1 DEB, 8436

Orbit data source: Space-Track

THORAD DELTA 1 DEB, 8436 is space debris in SSO originally from a launch on Fri, 15 Nov 1974 UTC launched from the Air Force Western Test Range (AFWTR). Debris objects in space refer to the collection of defunct objects orbiting the Earth. Examples of debris include non-operational satellites, rocket bodies, and fragments generated from explosions, collisions, or faulty payload assembly.

Loading next visibility...
Identifier
8436, 1974-089CM
Orbit
SSO
Country
Flag of USUS
Related business
Manufacturer
Unknown
Mission
Spacecraft
Bus & Motor
Unknown
Mass
Unknown
Launch date (UTC)
1974-11-15 (51 years ago)
Launch vehicle
Unknown
Launch site
Air Force Western Test Range (AFWTR)
Object type
Payload
Rocket body
Debris
Shape & HBR
Unknown shape, 0.2 m
Radar Cross Section
Medium (>0.1 m² and <1 m²)

Expand to show TLE details & history
Last TLE update: 13 hours ago

TLE from 13 hours ago
0 THORAD DELTA 1 DEB
1  8436U 74089CM  26036.28480318 -.00000025  00000-0  14522-3 0  9995
2  8436 101.7634 152.7124 0086873 302.7798  84.1037 12.35430792310390
Epoch: 2026-02-05T06:50Z
TLE epoch observation values (Epoch: 2026-02-05T06:50:06.994Z)
Latitude
27.27815°
Longitude
-91.39022°
Altitude
1,522.594 km
Speed
7.109 km/s
True Right ascension
09h 46m 18s
True Declination
27° 09' 07"
Sunlit
Object was in full shadow at epoch
Visualization orbit readout
Latitude
Unknown
Longitude
Unknown
Altitude
Unknown
Speed
Unknown
Apparent Right ascension
Unknown
Apparent Declination
Unknown
Sunlit
N/A
Visualization observer readout
Local Sidereal Time
22:09:11
Azimuth
Unknown
Elevation
Unknown
Doppler factor
Unknown
Orbital elements
Apogee altitude
1,592.243 km
Perigee altitude
1,454.954 km
Semi-major axis
7,901.736 km
Eccentricity
0.00869
Inclination
101.7634°
RAAN
152.7124°
Arg. of periapsis
302.7798°
True anomaly
85.09498°
Mean anomaly
84.1037°
Eccentric anomaly
84.59924°
Mean motion
3.09001 °/min
Orbital period
116.5 mins
BSTAR
0.00014522
Loading maneuver chart data...
Computing Atmospheric mass density...
Loading historical data...
Loading historical data...
Loading historical data...
Loading historical data...
Loading historical data...
Loading historical data...
Loading historical data...

Documentation

Showing up to 5 results
|